TimePDT,TemperatureF,Dew PointF,Humidity,Sea Level PressureIn,VisibilityMPH,Wind Direction,Wind SpeedMPH,Gust SpeedMPH,PrecipitationIn,Events,Conditions,WindDirDegrees,DateUTC
12:53 AM,77.0,37.4,24,29.89,10.0,West,6.9,-,N/A,,Clear,270,2012-10-05 07:53:00
1:53 AM,73.9,37.0,26,29.88,10.0,West,10.4,-,N/A,,Clear,260,2012-10-05 08:53:00
2:53 AM,73.0,37.0,27,29.88,10.0,West,6.9,-,N/A,,Clear,270,2012-10-05 09:53:00
3:53 AM,73.0,36.0,26,29.88,10.0,West,3.5,-,N/A,,Clear,260,2012-10-05 10:53:00
4:53 AM,70.0,36.0,29,29.89,10.0,Calm,Calm,-,N/A,,Clear,0,2012-10-05 11:53:00
5:53 AM,68.0,35.1,30,29.90,10.0,SW,5.8,-,N/A,,Clear,220,2012-10-05 12:53:00
6:53 AM,69.1,35.1,29,29.91,10.0,Calm,Calm,-,N/A,,Clear,0,2012-10-05 13:53:00
7:53 AM,72.0,39.0,30,29.93,10.0,Calm,Calm,-,N/A,,Clear,0,2012-10-05 14:53:00
8:53 AM,79.0,41.0,26,29.94,10.0,Calm,Calm,-,N/A,,Clear,0,2012-10-05 15:53:00
9:53 AM,82.4,48.2,30,29.94,10.0,Calm,Calm,-,N/A,,Clear,0,2012-10-05 16:53:00
10:53 AM,87.1,52.0,30,29.93,10.0,Calm,Calm,-,N/A,,Clear,0,2012-10-05 17:53:00
11:53 AM,90.0,42.1,19,29.91,10.0,Calm,Calm,-,N/A,,Clear,0,2012-10-05 18:53:00
12:53 PM,93.0,45.0,19,29.88,10.0,Variable,4.6,-,N/A,,Clear,0,2012-10-05 19:53:00
1:53 PM,93.9,45.0,18,29.85,10.0,NW,3.5,-,N/A,,Clear,310,2012-10-05 20:53:00
2:53 PM,93.9,35.1,13,29.83,10.0,Calm,Calm,-,N/A,,Clear,0,2012-10-05 21:53:00
3:53 PM,93.9,39.9,15,29.81,10.0,Calm,Calm,-,N/A,,Clear,0,2012-10-05 22:53:00
4:53 PM,93.9,37.9,14,29.80,10.0,NE,3.5,-,N/A,,Clear,40,2012-10-05 23:53:00
5:53 PM,93.0,39.0,15,29.80,10.0,Calm,Calm,-,N/A,,Clear,0,2012-10-06 00:53:00
6:53 PM,84.9,44.1,24,29.80,10.0,Calm,Calm,-,N/A,,Clear,0,2012-10-06 01:53:00
7:53 PM,80.1,48.0,32,29.81,10.0,West,3.5,-,N/A,,Clear,260,2012-10-06 02:53:00
8:53 PM,82.9,44.1,25,29.82,10.0,Calm,Calm,-,N/A,,Clear,0,2012-10-06 03:53:00
9:53 PM,78.1,46.0,32,29.82,10.0,West,8.1,-,N/A,,Clear,260,2012-10-06 04:53:00
10:53 PM,75.9,45.0,33,29.82,10.0,West,10.4,-,N/A,,Clear,270,2012-10-06 05:53:00
11:53 PM,77.0,43.0,30,29.82,10.0,West,9.2,-,N/A,,Clear,260,2012-10-06 06:53:00